Location: Aressy
(43.2833°N, 0.3167°W)
Time: 21:52:05
(UTC+00:00)

Cosmos 2112 Rocket - Pass Details

Date: 28 January 2021
Orbit: 757 x 786 km, 74.1° (Epoch: 02 March)

Event Time Altitude Azimuth Distance (km) Brightness Sun altitude
Rises 17:30:49 0° 342° (NNW) 3,242 7.2 -4.7°
Reaches altitude 10° 17:33:15 10° 346° (NNW) 2,308 6.4 -5.1°
Maximum altitude 17:38:26 61° 67° (ENE) 862 4.0 -6.0°
Drops below altitude 10° 17:43:32 10° 148° (SSE) 2,280 6.3 -6.8°
Sets 17:45:55 0° 152° (SSE) 3,200 7.1 -7.3°
